Regional Weather Roundup
Issued by NWS

Home | Current Version | Previous Version | Graphics & Text | Print | Product List | Glossary On
Versions: 1 2 3 4 5 6 7 8 9 10 11 12 13 14 15 16 17 18 19 20 21 22 23 24 25 26 27 28 29 30 31 32 33 34 35 36 37 38 39 40 41 42 43 44 45 46 47 48 49 50
000
ASUS43 KFSD 221210
RWRSD

WEATHER ROUNDUP FOR SOUTH DAKOTA
NATIONAL WEATHER SERVICE SIOUX FALLS SD
700 AM CDT SAT JUL 22 2017

NOTE: "FAIR" INDICATES FEW OR NO CLOUDS BELOW 12,000 FEET WITH NO
SIGNIFICANT WEATHER AND/OR OBSTRUCTIONS TO VISIBILITY.


SDZ001>005-009-010-012>017-221300-
NORTHWEST AND NORTH CENTRAL SOUTH DAKOTA

CITY           SKY/WX    TMP DP  RH WIND       PRES   REMARKS
BUFFALO          N/A     58  44  60 SW5       29.98R
FAITH            N/A     59  46  62 W7        30.00R
MOBRIDGE       PTCLDY    67  65  93 CALM      29.91R
$$

SDZ012>016-024>037-041>051-057-063-072>074-221300-
SOUTHWEST AND SOUTH CENTRAL SOUTH DAKOTA

CITY           SKY/WX    TMP DP  RH WIND       PRES   REMARKS
RAPID CTY ARPT LGT RAIN  62  50  64 NW9       30.05R
PIERRE         CLEAR     69  66  90 NW12      29.88S
CUSTER         MOCLDY    62  39  42 E13       30.19R
ELLSWORTH AFB  PTCLDY    66  44  45 NW7       30.04R
PHILIP         CLEAR     62  47  57 W7        29.96R
PINE RIDGE     CLEAR     61  59  93 CALM      30.03F
SPEARFISH      FAIR      57  41  54 SW5       30.10R
WINNER         FAIR      70  66  87 SW5       29.90R
$$

SDZ004>011-016>023-039-040-221300-
NORTHEAST SOUTH DAKOTA

CITY           SKY/WX    TMP DP  RH WIND       PRES   REMARKS
ABERDEEN       CLEAR     67  66  97 S6        29.87R FOG
WATERTOWN      PTCLDY    66  65  96 NE6       29.90R
BROOKINGS      CLEAR     66  63  90 W6        29.87R
SISSETON         N/A     69  67  93 N3        29.86S
$$

SDZ017-020-022-023-036>040-048>070-221300-
SOUTHEAST SOUTH DAKOTA

CITY           SKY/WX    TMP DP  RH WIND       PRES   REMARKS
SIOUX FALLS    PTCLDY    69  68  96 NW7       29.86R
HURON          PTCLDY    66  65  96 NW6       29.87R
CHAMBERLAIN    CLEAR     66  66 100 CALM      29.89R FOG
MITCHELL       CLOUDY    68  67  96 NW3       29.87R
YANKTON        CLEAR     70  69  97 W3        29.84S
$$

ABBREVIATIONS USED IN REMARKS
   TC - TEMPERATURE IN CELSIUS
  WCI - WIND CHILL INDEX
   HX - HEAT INDEX
  VSB - VISIBILITY




USA.gov is the U.S. government's official web portal to all federal, state and local government web resources and services.